Content
SEND FEEDBACK

Daily
Averages
Monthly
Summary
United States of America

COLUMBIA, MISSOURI


Home > North America > United States > Missouri
Elevation: 887 feet     Latitude: 38 49N     Longitude: 092 13W

WEATHER
 
SELECT A DAY
Number of Records: 205,117;   Date Range: 1/1/95 - 10/21/14
 
SHARE

PRINT THIS DATA

[ ← Previous Day ]
WEATHER ALMANAC - JANUARY 6, 2013
[ Next Day → ]
[ °C ]   °F
Weather ElementAverageHighLow
Temperature29.3 °F35.1 °F (2:54 pm)24.1 °F (11:54 pm)
Dewpoint20.2 °F26.1 °F (1:54 am)19 °F (9:54 am)
Humidity69.2 %81 % (8:54 pm)54 % (2:54 pm)
Barometer30.31 in30.39 in (7:54 pm)30.15 in (1:54 am)
Wind Speed9.5 mph20.7 mph (4:54 am)
Wind Gust27.6 mph (4:54 am)
Weather ElementAverage
Visibility9.8 mi
Wind DirectionWSW (254.6 °)

Weather ElementTotal
Precipitation---
Heating Degree Days35.4 (Base 65)
Averaged from 26 records on January 6, 2013
WEATHER CONDITIONS BREAKOUT
WIND DIRECTION BREAKOUT
WEATHER BY HOUR - JANUARY 6, 2013
[ °C ]   °F
Local TimeTemperatureDewpointHumidityBarometerVisibilityWind DirectionWind SpeedGust SpeedPrecipitationEventsConditions
1:54 AM32.0 °F26.1 °F79 %30.15 in10.0 miWest (270°)8.1 mphClear
2:54 AM30.9 °F25.0 °F79 %30.16 in10.0 miWest (270°)10.4 mphClear
3:54 AM30.9 °F23.0 °F72 %30.16 in10.0 miWNW (300°)10.4 mphMostly Cloudy
4:54 AM28.9 °F21.0 °F72 %30.19 in10.0 miNW (320°)20.7 mph27.6 mphOvercast
6:54 AM28.9 °F19.9 °F69 %30.25 in10.0 miNW (320°)18.4 mph23.0 mphOvercast
7:54 AM28.9 °F19.9 °F69 %30.27 in10.0 miWNW (300°)11.5 mphOvercast
8:26 AM28.4 °F19.4 °F69 %30.26 in10.0 miWNW (300°)11.5 mphScattered Clouds
8:46 AM28.4 °F19.4 °F69 %30.27 in9.0 miWNW (290°)16.1 mphMostly Cloudy
8:54 AM28.0 °F19.9 °F72 %30.30 in9.0 miWNW (290°)13.8 mphMostly Cloudy
9:37 AM26.6 °F19.4 °F74 %30.31 in8.0 miNW (310°)16.1 mphOvercast
9:54 AM25.0 °F19.0 °F78 %30.35 in9.0 miWNW (300°)16.1 mphOvercast
10:45 AM28.4 °F19.4 °F69 %30.33 in10.0 miNW (320°)12.7 mphScattered Clouds
10:54 AM28.0 °F19.0 °F69 %30.36 in10.0 miNW (310°)10.4 mphPartly Cloudy
11:54 AM30.9 °F19.9 °F64 %30.35 in10.0 miWNW (290°)8.1 mphClear
12:54 PM33.1 °F21.0 °F61 %30.33 in10.0 miWest (260°)11.5 mphClear
1:54 PM34.0 °F19.9 °F56 %30.34 in10.0 miNW (320°)9.2 mphClear
2:54 PM35.1 °F19.9 °F54 %30.35 in10.0 miWNW (300°)9.2 mphClear
3:54 PM35.1 °F19.9 °F54 %30.35 in10.0 miWNW (290°)5.8 mphClear
4:54 PM32.0 °F19.0 °F59 %30.36 in10.0 miWest (280°)4.6 mphClear
5:54 PM30.9 °F19.0 °F61 %30.37 in10.0 miCalmClear
6:54 PM30.0 °F19.0 °F64 %30.38 in10.0 miWest (270°)3.5 mphClear
7:54 PM28.0 °F19.9 °F72 %30.39 in10.0 miCalmClear
8:54 PM25.0 °F19.9 °F81 %30.38 in10.0 miSouth (190°)4.6 mphClear
9:54 PM25.0 °F19.0 °F78 %30.38 in10.0 miSouth (170°)4.6 mphClear
10:54 PM26.1 °F19.0 °F75 %30.38 in10.0 miSouth (170°)4.6 mphClear
11:54 PM24.1 °F19.0 °F81 %30.38 in10.0 miSouth (180°)5.8 mphClear
Hourly data recorded from KCOU, located miles away from Columbia, Missouri







STORIES FROM OUR PARTNERS